Weather History for TNCM - July, 2014

Change the Weather History Date:

Wednesday, July 23, 2014

  Actual Average Record
Temperature  
Mean Temperature 84 °F -  
Max Temperature 86 °F 87 °F 91 °F (2000)
Min Temperature 82 °F 77 °F 77 °F (2004)
Cooling Degree Days 19    
Growing Degree Days 34 (Base 50)    
Moisture  
Dew Point 73 °F    
Average Humidity 70    
Maximum Humidity 79    
Minimum Humidity 54    
Precipitation  
Precipitation 0.00 in 0.12 in - ()
Sea Level Pressure  
Sea Level Pressure 30.06 in    
Wind  
Wind Speed 11 mph ()    
Max Wind Speed 18 mph    
Max Gust Speed 29 mph    
Visibility 8.0 miles    
Events Rain    
Averages and records for this station are not official NWS values.
T = Trace of Precipitation, MM = Missing Value Source: Averaged Metar Reports

Daily Weather History Graph

Daily Weather History Graph

Search for Another Location

Airport or City:

Trip Planner

Search our weather history database for the weather conditions in past years. The results will help you decide how hot, cold, wet, or windy it might be!

Date:

Astronomy

Jul. 23, 2014 Rise Set
Actual Time 5:47 AM AST 6:49 PM AST
Civil Twilight 5:24 AM AST 7:13 PM AST
Nautical Twilight 4:56 AM AST 7:41 PM AST
Astronomical Twilight 4:28 AM AST 8:09 PM AST
Moon 3:00 AM AST (7/23) 4:17 PM AST (7/23)
Length of Visible Light 13h 48m
Length of Day
13h 01m
Waning Crescent, 10% of the Moon is Illuminated
Jul 23
Waning Crescent
Jul 26
New
Aug 3
First Quarter
Aug 10
Full
Aug 17
Last Quarter

Hourly Weather History & Observations

Time (AST) Temp. Heat Index Dew Point Humidity Pressure Visibility Wind Dir Wind Speed Gust Speed Precip Events Conditions
12:00 AM 82.4 °F 89.5 °F 75.2 °F 79% 30.09 in 6.2 mi East 10.4 mph - N/A   Scattered Clouds
1:00 AM 82.4 °F 89.5 °F 75.2 °F 79% 30.06 in 6.2 mi East 9.2 mph - N/A   Scattered Clouds
2:00 AM 82 °F - 75 °F 74% 30.06 in 22 mi East 10.4 mph - -   Partly Cloudy
2:00 AM 82.4 °F 89.5 °F 75.2 °F 79% 30.04 in 6.2 mi East 10.4 mph - N/A   Scattered Clouds
3:00 AM 82.4 °F 88.2 °F 73.4 °F 74% 30.04 in 6.2 mi East 11.5 mph - N/A   Scattered Clouds
4:00 AM 82.4 °F 88.2 °F 73.4 °F 74% 30.04 in 6.2 mi East 12.7 mph - N/A   Partly Cloudy
5:00 AM 82 °F - 73 °F 67% 30.06 in 22 mi East 12.7 mph - -   Scattered Clouds
5:00 AM 82.4 °F 88.2 °F 73.4 °F 74% 30.04 in 6.2 mi East 15.0 mph - N/A   Partly Cloudy
6:00 AM 82.4 °F 88.2 °F 73.4 °F 74% 30.06 in 6.2 mi East 11.5 mph - N/A   Partly Cloudy
7:00 AM 82.4 °F 88.2 °F 73.4 °F 74% 30.09 in 6.2 mi East 10.4 mph - N/A   Partly Cloudy
8:00 AM 84.2 °F 90.9 °F 73.4 °F 70% 30.09 in 6.2 mi ENE 11.5 mph - N/A   Mostly Cloudy
9:00 AM 86.0 °F 93.4 °F 73.4 °F 66% 30.09 in 6.2 mi ENE 15.0 mph - N/A   Scattered Clouds
10:00 AM 86.0 °F 93.4 °F 73.4 °F 66% 30.09 in 6.2 mi ENE 11.5 mph - N/A   Mostly Cloudy
11:00 AM 85 °F - 74 °F 61% 30.11 in 16 mi East 12.7 mph - -   Mostly Cloudy
11:00 AM 84.2 °F 90.9 °F 73.4 °F 70% 30.09 in 6.2 mi East 12.7 mph 26.5 mph N/A   Mostly Cloudy
12:00 PM 84.2 °F 90.9 °F 73.4 °F 70% 30.09 in 6.2 mi East 15.0 mph 27.6 mph N/A   Mostly Cloudy
1:00 PM 86.0 °F 91.8 °F 71.6 °F 62% 30.06 in 6.2 mi East 16.1 mph - N/A   Mostly Cloudy
2:00 PM 86 °F - 72 °F 54% 30.06 in 16 mi ESE 18.4 mph - -   Partly Cloudy
2:00 PM 86.0 °F 91.8 °F 71.6 °F 62% 30.04 in 6.2 mi ESE 18.4 mph - N/A   Scattered Clouds
3:00 PM 86.0 °F 91.8 °F 71.6 °F 62% 30.04 in 6.2 mi East 15.0 mph 28.8 mph N/A   Partly Cloudy
4:00 PM - - - N/A% - - North - - N/A   Unknown
5:00 PM 85 °F - 73 °F 61% 30.03 in 16 mi East 15.0 mph - -   Mostly Cloudy
5:00 PM 84.2 °F 90.9 °F 73.4 °F 70% 30.04 in 6.2 mi East 15.0 mph - N/A   Mostly Cloudy
6:00 PM 84.2 °F 90.9 °F 73.4 °F 70% 30.04 in 6.2 mi East 15.0 mph - N/A Rain Light Rain Showers
7:00 PM 82.4 °F 89.5 °F 75.2 °F 79% 30.04 in 6.2 mi East 10.4 mph - N/A Rain Rain
8:00 PM 83 °F - 74 °F 67% 30.06 in 16 mi ESE 12.7 mph - - Rain Light Rain Showers
8:00 PM 82.4 °F 88.2 °F 73.4 °F 74% 30.04 in 6.2 mi ESE 12.7 mph - N/A   Mostly Cloudy
9:00 PM 82.4 °F 87.2 °F 71.6 °F 70% 30.06 in 6.2 mi East 12.7 mph - N/A   Scattered Clouds
10:00 PM 82.4 °F 88.2 °F 73.4 °F 74% 30.06 in 6.2 mi East 13.8 mph - N/A   Partly Cloudy
11:00 PM 82 °F - 73 °F 67% 30.08 in 16 mi East 15.0 mph - -   Partly Cloudy
11:00 PM 82.4 °F 88.2 °F 73.4 °F 74% 30.06 in 6.2 mi East 12.7 mph - N/A   Partly Cloudy